MTN YSBK-YBSU

Flight info

Callsign MTN
Flight time 1h 13m
Altitude 45000
Route CHAT DCT MATLA H140 VEGAH/N0488F470
Aircraft C750/M-SBDE3FGHRWXY/S

Departure

Time 2026-04-26 05:12
Airport Sydney Bankstown Airport (YSBK)

Arrival

Time 2026-04-26 06:26
Airport Sunshine Coast Airport (YBSU)
Time Latitude Longitude Altitude Speed Heading
2026-04-26 04:46 -33.91947 150.98797 30 ft 0 kts 136°
2026-04-26 05:05 -33.91948 150.98798 29 ft 0 kts 136°
2026-04-26 05:06 -33.91954 150.98803 30 ft 7 kts 145°
2026-04-26 05:06 -33.92008 150.98845 30 ft 9 kts 147°
2026-04-26 05:06 -33.92058 150.98892 30 ft 9 kts 133°
2026-04-26 05:06 -33.92093 150.98954 30 ft 9 kts 124°
2026-04-26 05:07 -33.92127 150.99015 30 ft 9 kts 123°
2026-04-26 05:07 -33.92172 150.99096 30 ft 19 kts 124°
2026-04-26 05:07 -33.92250 150.99236 30 ft 20 kts 123°
2026-04-26 05:07 -33.92327 150.99374 30 ft 19 kts 124°
2026-04-26 05:08 -33.92399 150.99502 30 ft 18 kts 123°
2026-04-26 05:08 -33.92473 150.99618 30 ft 17 kts 141°
2026-04-26 05:08 -33.92514 150.99684 31 ft 0 kts 129°
2026-04-26 05:08 -33.92535 150.99672 32 ft 10 kts 217°
2026-04-26 05:09 -33.92596 150.99639 33 ft 10 kts 180°
2026-04-26 05:09 -33.92618 150.99641 32 ft 0 kts 176°
2026-04-26 05:10 -33.92631 150.99642 32 ft 3 kts 177°
2026-04-26 05:11 -33.92662 150.99633 31 ft 6 kts 242°
2026-04-26 05:11 -33.92650 150.99594 31 ft 0 kts 303°
2026-04-26 05:11 -33.92649 150.99593 31 ft 3 kts 304°
2026-04-26 05:11 -33.92454 150.99244 29 ft 114 kts 304°
2026-04-26 05:12 -33.91930 150.98294 501 ft 145 kts 309°
2026-04-26 05:12 -33.91316 150.97185 682 ft 169 kts 306°
2026-04-26 05:12 -33.90624 150.95942 1013 ft 194 kts 306°
2026-04-26 05:12 -33.89855 150.94451 1522 ft 219 kts 304°
2026-04-26 05:13 -33.89075 150.92930 2483 ft 211 kts 305°
2026-04-26 05:13 -33.88226 150.91351 3037 ft 243 kts 306°
2026-04-26 05:13 -33.87260 150.89571 3024 ft 254 kts 304°
2026-04-26 05:13 -33.86296 150.87753 3026 ft 258 kts 304°
2026-04-26 05:14 -33.85331 150.85942 3016 ft 260 kts 304°
2026-04-26 05:14 -33.84331 150.84135 2998 ft 257 kts 310°
2026-04-26 05:14 -33.82860 150.82972 2936 ft 254 kts 346°
2026-04-26 05:14 -33.81081 150.82987 3585 ft 259 kts 11°
2026-04-26 05:15 -33.79481 150.83819 5133 ft 253 kts 34°
2026-04-26 05:15 -33.78311 150.85472 6019 ft 269 kts 62°
2026-04-26 05:15 -33.77896 150.87683 7041 ft 275 kts 89°
2026-04-26 05:15 -33.78031 150.89952 8211 ft 276 kts 95°
2026-04-26 05:16 -33.78211 150.92281 9409 ft 280 kts 94°
2026-04-26 05:16 -33.78343 150.94623 10408 ft 288 kts 93°
2026-04-26 05:16 -33.78469 150.97143 10828 ft 313 kts 93°
2026-04-26 05:16 -33.78623 150.99882 11064 ft 341 kts 94°
2026-04-26 05:17 -33.78793 151.02761 11607 ft 353 kts 94°
2026-04-26 05:17 -33.78961 151.05706 12524 ft 354 kts 94°
2026-04-26 05:17 -33.79124 151.08692 13318 ft 359 kts 94°
2026-04-26 05:17 -33.79282 151.11680 14082 ft 363 kts 93°
2026-04-26 05:18 -33.78974 151.14719 14661 ft 369 kts 72°
2026-04-26 05:18 -33.77782 151.17411 15459 ft 370 kts 53°
2026-04-26 05:18 -33.75835 151.19468 16188 ft 374 kts 32°
2026-04-26 05:18 -33.73415 151.20650 16926 ft 378 kts 18°
2026-04-26 05:19 -33.70888 151.21487 17733 ft 381 kts 16°
2026-04-26 05:19 -33.68308 151.22309 18512 ft 386 kts 17°
2026-04-26 05:19 -33.65698 151.23187 19207 ft 389 kts 17°
2026-04-26 05:19 -33.63098 151.24083 19897 ft 394 kts 17°
2026-04-26 05:20 -33.60439 151.24977 20610 ft 398 kts 17°
2026-04-26 05:20 -33.57740 151.25870 21320 ft 403 kts 17°
2026-04-26 05:20 -33.55053 151.26767 22032 ft 408 kts 17°
2026-04-26 05:20 -33.52289 151.27698 22748 ft 412 kts 17°
2026-04-26 05:21 -33.49534 151.28624 23439 ft 416 kts 16°
2026-04-26 05:21 -33.46715 151.29565 24070 ft 421 kts 17°
2026-04-26 05:21 -33.43868 151.30516 24620 ft 426 kts 17°
2026-04-26 05:21 -33.40988 151.31479 25172 ft 431 kts 17°
2026-04-26 05:22 -33.38113 151.32440 25718 ft 435 kts 17°
2026-04-26 05:22 -33.35169 151.33421 26265 ft 440 kts 16°
2026-04-26 05:22 -33.32198 151.34410 26814 ft 444 kts 17°
2026-04-26 05:22 -33.29200 151.35410 27351 ft 449 kts 16°
2026-04-26 05:23 -33.26189 151.36412 27886 ft 454 kts 16°
2026-04-26 05:23 -33.23122 151.37433 28418 ft 458 kts 16°
2026-04-26 05:23 -33.20032 151.38460 28903 ft 464 kts 16°
2026-04-26 05:23 -33.16936 151.39488 29448 ft 468 kts 16°
2026-04-26 05:24 -33.13766 151.40540 29983 ft 472 kts 16°
2026-04-26 05:24 -33.10608 151.41590 30461 ft 477 kts 16°
2026-04-26 05:24 -33.07389 151.42657 30920 ft 480 kts 16°
2026-04-26 05:24 -33.05242 151.43367 31250 ft 481 kts 16°
2026-04-26 05:25 -33.02018 151.44432 31938 ft 479 kts 16°
2026-04-26 05:25 -32.97744 151.45847 32770 ft 479 kts 16°
2026-04-26 05:25 -32.95571 151.46566 33234 ft 477 kts 16°
2026-04-26 05:25 -32.92401 151.47614 33918 ft 476 kts 15°
2026-04-26 05:26 -32.89200 151.48669 34551 ft 475 kts 15°
2026-04-26 05:26 -32.86047 151.49708 35148 ft 473 kts 15°
2026-04-26 05:26 -32.82869 151.50757 35765 ft 472 kts 15°
2026-04-26 05:26 -32.79701 151.51800 36386 ft 471 kts 15°
2026-04-26 05:27 -32.76538 151.52840 37008 ft 469 kts 15°
2026-04-26 05:27 -32.73449 151.53947 37630 ft 468 kts 17°
2026-04-26 05:27 -32.70339 151.55125 38282 ft 466 kts 17°
2026-04-26 05:27 -32.67244 151.56282 38916 ft 464 kts 17°
2026-04-26 05:28 -32.64192 151.57416 39439 ft 463 kts 16°
2026-04-26 05:28 -32.61106 151.58570 39913 ft 463 kts 17°
2026-04-26 05:28 -32.58067 151.59710 40394 ft 462 kts 16°
2026-04-26 05:28 -32.54988 151.60861 40902 ft 461 kts 16°
2026-04-26 05:29 -32.51916 151.62005 41413 ft 461 kts 16°
2026-04-26 05:29 -32.48883 151.63136 41896 ft 460 kts 16°
2026-04-26 05:29 -32.45813 151.64282 42321 ft 461 kts 16°
2026-04-26 05:29 -32.42770 151.65418 42791 ft 461 kts 16°
2026-04-26 05:30 -32.39699 151.66560 43287 ft 461 kts 16°
2026-04-26 05:30 -32.36630 151.67700 43754 ft 460 kts 16°
2026-04-26 05:30 -32.33608 151.68823 44205 ft 460 kts 16°
2026-04-26 05:30 -32.30546 151.69964 44675 ft 460 kts 16°
2026-04-26 05:31 -32.27470 151.71107 45098 ft 460 kts 15°
2026-04-26 05:31 -32.24438 151.72224 45230 ft 466 kts 15°
2026-04-26 05:31 -32.18118 151.74568 45234 ft 482 kts 16°
2026-04-26 05:32 -32.11624 151.76972 45242 ft 497 kts 15°
2026-04-26 05:32 -32.04933 151.79442 45246 ft 511 kts 15°
2026-04-26 05:33 -31.98068 151.81976 45250 ft 524 kts 15°
2026-04-26 05:33 -31.91074 151.84551 45244 ft 528 kts 15°
2026-04-26 05:34 -31.84078 151.87123 45243 ft 528 kts 15°
2026-04-26 05:34 -31.77070 151.89695 45244 ft 528 kts 15°
2026-04-26 05:35 -31.70066 151.92261 45246 ft 528 kts 15°
2026-04-26 05:35 -31.63015 151.94842 45239 ft 529 kts 15°
2026-04-26 05:36 -31.55999 151.97405 45247 ft 529 kts 15°
2026-04-26 05:36 -31.49000 151.99958 45247 ft 529 kts 15°
2026-04-26 05:37 -31.41932 152.02531 45239 ft 529 kts 15°
2026-04-26 05:37 -31.34933 152.05078 45242 ft 529 kts 15°
2026-04-26 05:38 -31.27915 152.07624 45246 ft 529 kts 15°
2026-04-26 05:38 -31.20895 152.10170 45245 ft 529 kts 15°
2026-04-26 05:39 -31.13830 152.12726 45242 ft 529 kts 15°
2026-04-26 05:39 -31.06822 152.15258 45249 ft 529 kts 15°
2026-04-26 05:40 -30.99789 152.17797 45242 ft 529 kts 15°
2026-04-26 05:40 -30.92779 152.20321 45241 ft 529 kts 15°
2026-04-26 05:41 -30.85724 152.22859 45239 ft 529 kts 15°
2026-04-26 05:41 -30.78707 152.25379 45226 ft 529 kts 15°
2026-04-26 05:42 -30.71675 152.27901 45241 ft 529 kts 15°
2026-04-26 05:42 -30.64672 152.30408 45245 ft 529 kts 15°
2026-04-26 05:43 -30.57608 152.32933 45248 ft 529 kts 15°
2026-04-26 05:43 -30.50589 152.35440 45248 ft 528 kts 15°
2026-04-26 05:44 -30.43687 152.38308 45252 ft 530 kts 19°
2026-04-26 05:44 -30.36757 152.41349 45258 ft 529 kts 18°
2026-04-26 05:45 -30.29869 152.44288 45255 ft 529 kts 18°
2026-04-26 05:45 -30.23001 152.47282 45253 ft 529 kts 18°
2026-04-26 05:46 -30.16072 152.50252 45247 ft 529 kts 18°
2026-04-26 05:46 -30.09181 152.53227 45237 ft 530 kts 18°
2026-04-26 05:47 -30.02271 152.56190 45240 ft 531 kts 18°
2026-04-26 05:47 -29.95321 152.59176 45232 ft 530 kts 18°
2026-04-26 05:48 -29.88414 152.62133 45235 ft 530 kts 18°
2026-04-26 05:48 -29.81509 152.65091 45234 ft 531 kts 18°
2026-04-26 05:49 -29.71126 152.69516 45232 ft 531 kts 18°
2026-04-26 05:50 -29.64221 152.72467 45231 ft 531 kts 18°
2026-04-26 05:50 -29.57266 152.75421 45231 ft 531 kts 18°
2026-04-26 05:51 -29.50369 152.78358 45229 ft 531 kts 18°
2026-04-26 05:51 -29.43451 152.81290 45229 ft 531 kts 18°
2026-04-26 05:52 -29.36352 152.83575 45227 ft 528 kts
2026-04-26 05:52 -29.29178 152.85312 45238 ft 528 kts 10°
2026-04-26 05:53 -29.22029 152.87201 45234 ft 528 kts
2026-04-26 05:53 -29.14825 152.88987 45224 ft 526 kts
2026-04-26 05:54 -29.07673 152.90839 45219 ft 528 kts
2026-04-26 05:54 -29.00532 152.92630 45219 ft 527 kts
2026-04-26 05:55 -28.93329 152.94469 45221 ft 528 kts
2026-04-26 05:55 -28.86181 152.96271 45221 ft 529 kts
2026-04-26 05:56 -28.79001 152.98090 45221 ft 529 kts
2026-04-26 05:56 -28.71796 152.99906 45219 ft 528 kts
2026-04-26 05:57 -28.64624 153.01715 45208 ft 529 kts
2026-04-26 05:57 -28.57448 153.03521 45218 ft 530 kts
2026-04-26 05:58 -28.50247 153.05332 45211 ft 529 kts
2026-04-26 05:58 -28.43061 153.07135 45206 ft 530 kts
2026-04-26 05:59 -28.35871 153.08937 45199 ft 532 kts
2026-04-26 05:59 -28.28662 153.10746 44553 ft 519 kts
2026-04-26 05:59 -28.25228 153.11609 43907 ft 503 kts
2026-04-26 06:00 -28.21849 153.12453 43254 ft 488 kts
2026-04-26 06:00 -28.18575 153.13265 42637 ft 475 kts
2026-04-26 06:00 -28.15374 153.14060 42013 ft 463 kts
2026-04-26 06:00 -28.12281 153.14837 41431 ft 456 kts
2026-04-26 06:01 -28.09186 153.15611 40835 ft 454 kts
2026-04-26 06:01 -28.06081 153.16378 40234 ft 457 kts
2026-04-26 06:01 -28.02983 153.17145 39636 ft 464 kts
2026-04-26 06:01 -27.99811 153.17937 39021 ft 467 kts
2026-04-26 06:02 -27.96614 153.18737 38341 ft 468 kts
2026-04-26 06:02 -27.93458 153.19520 37725 ft 470 kts
2026-04-26 06:02 -27.90239 153.20317 37097 ft 473 kts
2026-04-26 06:02 -27.86992 153.21123 36466 ft 477 kts
2026-04-26 06:03 -27.83745 153.21931 35836 ft 479 kts
2026-04-26 06:03 -27.80499 153.22736 35209 ft 482 kts
2026-04-26 06:03 -27.77203 153.23551 34565 ft 485 kts
2026-04-26 06:03 -27.73901 153.24368 33939 ft 487 kts
2026-04-26 06:04 -27.70576 153.25192 33290 ft 489 kts
2026-04-26 06:04 -27.67280 153.26007 32648 ft 491 kts
2026-04-26 06:04 -27.63918 153.26838 31980 ft 493 kts
2026-04-26 06:04 -27.60584 153.27663 31339 ft 495 kts
2026-04-26 06:05 -27.57190 153.28499 30680 ft 498 kts
2026-04-26 06:05 -27.53844 153.29325 29990 ft 494 kts
2026-04-26 06:05 -27.50499 153.30151 29324 ft 486 kts
2026-04-26 06:05 -27.47204 153.30963 28696 ft 481 kts
2026-04-26 06:06 -27.43937 153.31766 28062 ft 476 kts 10°
2026-04-26 06:06 -27.40749 153.32551 27422 ft 472 kts 10°
2026-04-26 06:06 -27.37539 153.33342 26801 ft 469 kts 10°
2026-04-26 06:06 -27.34357 153.34130 26186 ft 465 kts 10°
2026-04-26 06:07 -27.31235 153.34891 25588 ft 460 kts 10°
2026-04-26 06:07 -27.28114 153.35647 24984 ft 455 kts 11°
2026-04-26 06:07 -27.25057 153.36401 24395 ft 451 kts 11°
2026-04-26 06:07 -27.21994 153.37160 23801 ft 447 kts 11°
2026-04-26 06:08 -27.18948 153.37905 23154 ft 441 kts 11°
2026-04-26 06:08 -27.15994 153.38625 22466 ft 436 kts 12°
2026-04-26 06:08 -27.13033 153.39351 21889 ft 431 kts 12°
2026-04-26 06:08 -27.10127 153.40064 21327 ft 429 kts 12°
2026-04-26 06:09 -27.07221 153.40772 20765 ft 425 kts 12°
2026-04-26 06:09 -27.04341 153.41475 20207 ft 422 kts 12°
2026-04-26 06:09 -27.01530 153.42163 19656 ft 415 kts 13°
2026-04-26 06:09 -26.98706 153.42854 19107 ft 409 kts 13°
2026-04-26 06:10 -26.95928 153.43536 18566 ft 405 kts 13°
2026-04-26 06:10 -26.93199 153.44202 17997 ft 398 kts 13°
2026-04-26 06:10 -26.90499 153.44857 17471 ft 395 kts 14°
2026-04-26 06:10 -26.87818 153.45509 16955 ft 390 kts 14°
2026-04-26 06:11 -26.85191 153.46149 16442 ft 390 kts 13°
2026-04-26 06:11 -26.82545 153.46794 15929 ft 388 kts 13°
2026-04-26 06:11 -26.79922 153.47430 15419 ft 383 kts 14°
2026-04-26 06:11 -26.77341 153.48058 14918 ft 379 kts 14°
2026-04-26 06:12 -26.74721 153.48445 14366 ft 381 kts
2026-04-26 06:12 -26.72173 153.47852 13872 ft 380 kts 341°
2026-04-26 06:12 -26.69845 153.46436 13386 ft 381 kts 329°
2026-04-26 06:12 -26.67615 153.44835 12892 ft 380 kts 328°
2026-04-26 06:13 -26.65376 153.43232 12389 ft 378 kts 329°
2026-04-26 06:13 -26.63191 153.41698 11891 ft 372 kts 330°
2026-04-26 06:13 -26.60981 153.40154 11396 ft 373 kts 329°
2026-04-26 06:13 -26.58873 153.38666 10916 ft 347 kts 329°
2026-04-26 06:14 -26.56888 153.37258 10467 ft 325 kts 330°
2026-04-26 06:14 -26.55641 153.36379 10189 ft 314 kts 330°
2026-04-26 06:14 -26.53230 153.34689 9623 ft 304 kts 330°
2026-04-26 06:14 -26.52016 153.33837 9354 ft 304 kts 330°
2026-04-26 06:15 -26.50230 153.32582 8958 ft 305 kts 330°
2026-04-26 06:15 -26.48435 153.31318 8558 ft 303 kts 330°
2026-04-26 06:15 -26.46671 153.30076 8160 ft 303 kts 330°
2026-04-26 06:15 -26.45044 153.28580 7844 ft 300 kts 315°
2026-04-26 06:16 -26.43619 153.26890 7685 ft 299 kts 314°
2026-04-26 06:16 -26.42177 153.25185 7448 ft 302 kts 315°
2026-04-26 06:16 -26.40729 153.23519 7202 ft 304 kts 315°
2026-04-26 06:16 -26.39259 153.21827 6935 ft 301 kts 314°
2026-04-26 06:17 -26.37808 153.20142 6670 ft 298 kts 314°
2026-04-26 06:17 -26.36389 153.18477 6394 ft 299 kts 313°
2026-04-26 06:17 -26.35362 153.16485 6026 ft 291 kts 284°
2026-04-26 06:17 -26.35040 153.14354 5844 ft 265 kts 275°
2026-04-26 06:18 -26.34817 153.12409 5645 ft 250 kts 275°
2026-04-26 06:18 -26.34588 153.10493 5438 ft 247 kts 275°
2026-04-26 06:18 -26.34351 153.08587 5229 ft 248 kts 275°
2026-04-26 06:18 -26.34124 153.06699 5012 ft 248 kts 274°
2026-04-26 06:19 -26.34347 153.04833 4697 ft 240 kts 242°
2026-04-26 06:19 -26.35234 153.03296 4536 ft 231 kts 228°
2026-04-26 06:19 -26.36188 153.01875 4376 ft 233 kts 228°
2026-04-26 06:19 -26.37164 153.00430 4183 ft 227 kts 225°
2026-04-26 06:20 -26.38398 152.99459 4054 ft 212 kts 198°
2026-04-26 06:20 -26.39776 152.98786 4117 ft 217 kts 198°
2026-04-26 06:20 -26.41143 152.98088 4008 ft 219 kts 199°
2026-04-26 06:20 -26.42472 152.97406 3742 ft 201 kts 197°
2026-04-26 06:21 -26.43714 152.96785 3490 ft 185 kts 196°
2026-04-26 06:21 -26.44878 152.96547 3221 ft 172 kts 171°
2026-04-26 06:21 -26.46006 152.96917 3005 ft 165 kts 148°
2026-04-26 06:21 -26.46940 152.97695 2816 ft 170 kts 140°
2026-04-26 06:22 -26.47824 152.98456 2568 ft 154 kts 141°
2026-04-26 06:22 -26.48692 152.99195 2379 ft 154 kts 141°
2026-04-26 06:22 -26.49565 152.99942 2172 ft 161 kts 141°
2026-04-26 06:22 -26.50445 153.00697 1963 ft 158 kts 142°
2026-04-26 06:23 -26.51302 153.01427 1729 ft 155 kts 143°
2026-04-26 06:23 -26.52147 153.02161 1504 ft 147 kts 141°
2026-04-26 06:23 -26.52937 153.02883 1336 ft 143 kts 142°
2026-04-26 06:23 -26.53677 153.03543 1181 ft 136 kts 143°
2026-04-26 06:24 -26.54440 153.04172 1021 ft 133 kts 142°
2026-04-26 06:24 -26.55150 153.04769 844 ft 127 kts 141°
2026-04-26 06:24 -26.55891 153.05396 717 ft 132 kts 143°
2026-04-26 06:24 -26.56586 153.05985 554 ft 122 kts 144°
2026-04-26 06:25 -26.57248 153.06550 369 ft 117 kts 140°
2026-04-26 06:25 -26.57888 153.07099 179 ft 115 kts 142°
2026-04-26 06:25 -26.58510 153.07629 39 ft 110 kts 143°
2026-04-26 06:25 -26.59014 153.08058 19 ft 61 kts 142°
2026-04-26 06:26 -26.59224 153.08235 19 ft 29 kts 142°
2026-04-26 06:26 -26.59344 153.08290 18 ft 14 kts 224°
2026-04-26 06:26 -26.59400 153.08210 19 ft 13 kts 229°
2026-04-26 06:26 -26.59469 153.08215 18 ft 10 kts 144°
2026-04-26 06:27 -26.59518 153.08254 18 ft 8 kts 141°
2026-04-26 06:27 -26.59560 153.08289 18 ft 7 kts 142°
2026-04-26 06:27 -26.59604 153.08326 20 ft 13 kts 142°
2026-04-26 06:27 -26.59685 153.08395 18 ft 15 kts 143°
2026-04-26 06:28 -26.59763 153.08461 20 ft 14 kts 143°
2026-04-26 06:28 -26.59839 153.08525 20 ft 13 kts 142°
2026-04-26 06:28 -26.59912 153.08587 19 ft 13 kts 143°
2026-04-26 06:28 -26.59983 153.08647 18 ft 13 kts 143°
2026-04-26 06:29 -26.60054 153.08707 18 ft 13 kts 143°
2026-04-26 06:29 -26.60125 153.08768 19 ft 13 kts 143°
2026-04-26 06:29 -26.60196 153.08828 19 ft 13 kts 142°
2026-04-26 06:29 -26.60269 153.08891 20 ft 13 kts 144°
2026-04-26 06:30 -26.60335 153.08932 18 ft 7 kts 206°
2026-04-26 06:30 -26.60414 153.08937 18 ft 15 kts 141°
2026-04-26 06:30 -26.60500 153.09009 20 ft 15 kts 143°
2026-04-26 06:30 -26.60600 153.09052 19 ft 16 kts 193°
2026-04-26 06:31 -26.60691 153.09024 18 ft 11 kts 195°
2026-04-26 06:31 -26.60747 153.08995 18 ft 6 kts 262°
2026-04-26 06:31 -26.60741 153.08967 18 ft 4 kts 284°
2026-04-26 06:31 -26.60771 153.08945 20 ft 11 kts 192°
2026-04-26 06:32 -26.60845 153.08926 19 ft 11 kts 193°
2026-04-26 06:32 -26.60922 153.08905 18 ft 12 kts 195°
2026-04-26 06:32 -26.60980 153.08857 19 ft 10 kts 243°
2026-04-26 06:32 -26.60975 153.08802 21 ft 5 kts 350°
2026-04-26 06:33 -26.60960 153.08818 19 ft 2 kts 57°
2026-04-26 06:33 -26.60958 153.08820 20 ft 0 kts 57°